Check out our new BloomSky Weather System.

Active alerts


No alerts


Thunder radar  blitzortung!


Rain radar more information rain snow radar


Visit our other weather sites:

Template documentation
and downloads

And another site



Weather Underground History page Text

Daily Summary for March 27, 2017 Units:  Metric    English   Both
« Previous Day
Next Day »
Daily Weekly Monthly Yearly Custom
  High: Low: Average:
Temperature: 30.6 °C 21.4 °C 25.1 °C
Dew Point: 22.2 °C 19.9 °C 20.9 °C
Humidity: 96 % 57 % 79 %
Wind Speed: 20.9 km/h 0 km/h 5.8 km/h
Wind Gust: 24.1 km/h - -
Wind:- - SSE
Pressure: 1012.4 hPa 1008.7 hPa -
Precipitation: 0 mm    
Historical Graphs
 
 
Tabular Data for March 27, 2017
Time Temperature Dew Point Pressure Wind Wind Speed Wind Gust Humidity Rainfall Rate (Hourly)
00:03 22.4 °C 20.1 °C 1011.7 hPa South 9.7 km/h 9.7 km/h 87 % 0 mm
00:08 22.4 °C 20.3 °C 1011.7 hPa SSE 6.4 km/h 11.3 km/h 88 % 0 mm
00:13 22.4 °C 20.3 °C 1011.7 hPa SSE 6.4 km/h 11.3 km/h 88 % 0 mm
00:18 22.3 °C 20.2 °C 1011.7 hPa SE 8 km/h 11.3 km/h 88 % 0 mm
00:23 22.3 °C 20.2 °C 1011.7 hPa ESE 11.3 km/h 11.3 km/h 88 % 0 mm
00:28 22.3 °C 20.2 °C 1011.7 hPa SE 8 km/h 12.9 km/h 88 % 0 mm
00:33 22.2 °C 20.1 °C 1012.1 hPa ESE 3.2 km/h 12.9 km/h 88 % 0 mm
00:38 22.2 °C 20.1 °C 1012.1 hPa ESE 4.8 km/h 12.9 km/h 88 % 0 mm
00:43 22.2 °C 20.1 °C 1012.1 hPa SE 3.2 km/h 11.3 km/h 88 % 0 mm
00:48 22.2 °C 20.1 °C 1012.1 hPa SSE 3.2 km/h 8 km/h 88 % 0 mm
00:53 22.3 °C 20.4 °C 1011.7 hPa SSE 4.8 km/h 8 km/h 89 % 0 mm
00:58 22.3 °C 20.2 °C 1011.7 hPa SE 9.7 km/h 11.3 km/h 88 % 0 mm
01:03 22.3 °C 20.2 °C 1011.7 hPa SSE 8 km/h 11.3 km/h 88 % 0 mm
01:08 22.3 °C 20.2 °C 1011.7 hPa SSE 3.2 km/h 14.5 km/h 88 % 0 mm
01:13 22.3 °C 20.2 °C 1011.4 hPa SE 8 km/h 14.5 km/h 88 % 0 mm
01:18 22.3 °C 20.4 °C 1011.4 hPa SE 4.8 km/h 14.5 km/h 89 % 0 mm
01:23 22.2 °C 20.3 °C 1011.4 hPa South 3.2 km/h 14.5 km/h 89 % 0 mm
01:28 22.2 °C 20.3 °C 1011.4 hPa SSE 8 km/h 14.5 km/h 89 % 0 mm
01:33 22.2 °C 20.3 °C 1011.4 hPa South 4.8 km/h 14.5 km/h 89 % 0 mm
01:38 22.1 °C 20.2 °C 1011.7 hPa SSE 4.8 km/h 14.5 km/h 89 % 0 mm
01:43 22.1 °C 20.4 °C 1011.7 hPa South 3.2 km/h 14.5 km/h 90 % 0 mm
01:48 22 °C 20.3 °C 1011.7 hPa SSE 1.6 km/h 14.5 km/h 90 % 0 mm
01:54 21.9 °C 20.2 °C 1011.7 hPa SSE 6.4 km/h 9.7 km/h 90 % 0 mm
01:59 21.9 °C 20.4 °C 1011.7 hPa South 3.2 km/h 11.3 km/h 91 % 0 mm
02:04 21.9 °C 20.4 °C 1011.4 hPa SSW 3.2 km/h 11.3 km/h 91 % 0 mm
02:09 21.9 °C 20.4 °C 1011.4 hPa SE 3.2 km/h 11.3 km/h 91 % 0 mm
02:14 21.9 °C 20.4 °C 1011.4 hPa SW 4.8 km/h 9.7 km/h 91 % 0 mm
02:19 21.9 °C 20.4 °C 1011.7 hPa ESE 6.4 km/h 9.7 km/h 91 % 0 mm
02:24 21.9 °C 20.4 °C 1011.4 hPa SSE 3.2 km/h 9.7 km/h 91 % 0 mm
02:29 21.9 °C 20.4 °C 1011.4 hPa SE 3.2 km/h 8 km/h 91 % 0 mm
02:34 21.9 °C 20.5 °C 1011.4 hPa SSE 1.6 km/h 8 km/h 92 % 0 mm
02:39 21.8 °C 20.4 °C 1011.1 hPa SSE 3.2 km/h 8 km/h 92 % 0 mm
02:44 21.8 °C 20.4 °C 1011.1 hPa SSE 3.2 km/h 6.4 km/h 92 % 0 mm
02:49 21.8 °C 20.4 °C 1011.1 hPa SE 4.8 km/h 11.3 km/h 92 % 0 mm
02:54 21.8 °C 20.6 °C 1011.1 hPa South 4.8 km/h 11.3 km/h 93 % 0 mm
02:59 21.7 °C 20.5 °C 1010.7 hPa SE 3.2 km/h 11.3 km/h 93 % 0 mm
03:04 21.7 °C 20.5 °C 1010.7 hPa SE 6.4 km/h 9.7 km/h 93 % 0 mm
03:09 21.7 °C 20.5 °C 1010.4 hPa ESE 8 km/h 9.7 km/h 93 % 0 mm
03:14 21.7 °C 20.5 °C 1010 hPa ESE 6.4 km/h 9.7 km/h 93 % 0 mm
03:19 21.7 °C 20.7 °C 1010.4 hPa SE 6.4 km/h 9.7 km/h 94 % 0 mm
03:24 21.6 °C 20.6 °C 1010.4 hPa SSE 3.2 km/h 9.7 km/h 94 % 0 mm
03:29 21.6 °C 20.6 °C 1010 hPa SE 6.4 km/h 9.7 km/h 94 % 0 mm
03:34 21.6 °C 20.6 °C 1010.4 hPa South 4.8 km/h 11.3 km/h 94 % 0 mm
03:39 21.6 °C 20.6 °C 1010 hPa SE 4.8 km/h 11.3 km/h 94 % 0 mm
03:44 21.6 °C 20.6 °C 1010.4 hPa ESE 3.2 km/h 11.3 km/h 94 % 0 mm
03:49 21.6 °C 20.6 °C 1010.4 hPa SSE 3.2 km/h 9.7 km/h 94 % 0 mm
03:54 21.6 °C 20.6 °C 1010.4 hPa South 6.4 km/h 9.7 km/h 94 % 0 mm
03:59 21.6 °C 20.8 °C 1010.4 hPa SSE 4.8 km/h 9.7 km/h 95 % 0 mm
04:04 21.7 °C 20.9 °C 1010.4 hPa Calm   9.7 km/h 95 % 0 mm
04:09 21.6 °C 20.6 °C 1010.4 hPa Calm   9.7 km/h 94 % 0 mm
04:14 21.6 °C 20.6 °C 1010.4 hPa Calm   9.7 km/h 94 % 0 mm
04:19 21.6 °C 20.8 °C 1010.4 hPa Calm   9.7 km/h 95 % 0 mm
04:24 21.5 °C 20.7 °C 1011.1 hPa SSE 1.6 km/h 1.6 km/h 95 % 0 mm
04:29 21.6 °C 20.8 °C 1011.1 hPa Calm   3.2 km/h 95 % 0 mm
04:34 21.6 °C 20.8 °C 1010.7 hPa Calm   3.2 km/h 95 % 0 mm
04:40 21.6 °C 20.8 °C 1010.7 hPa Calm   3.2 km/h 95 % 0 mm
04:45 21.6 °C 20.8 °C 1010.7 hPa Calm   1.6 km/h 95 % 0 mm
04:50 21.7 °C 20.9 °C 1010.7 hPa Calm     95 % 0 mm
04:55 21.7 °C 20.9 °C 1010.7 hPa Calm   3.2 km/h 95 % 0 mm
05:00 21.7 °C 20.9 °C 1010.7 hPa Calm   3.2 km/h 95 % 0 mm
05:05 21.7 °C 20.9 °C 1010.4 hPa ESE 1.6 km/h 3.2 km/h 95 % 0 mm
05:10 21.7 °C 20.9 °C 1010.4 hPa ESE 1.6 km/h 3.2 km/h 95 % 0 mm
05:15 21.7 °C 20.9 °C 1010 hPa SE 4.8 km/h 4.8 km/h 95 % 0 mm
05:20 21.7 °C 20.9 °C 1010 hPa East 4.8 km/h 4.8 km/h 95 % 0 mm
05:25 21.7 °C 20.9 °C 1010.4 hPa Calm   6.4 km/h 95 % 0 mm
05:30 21.7 °C 20.9 °C 1010 hPa East 4.8 km/h 6.4 km/h 95 % 0 mm
05:35 21.8 °C 21 °C 1010 hPa East 3.2 km/h 8 km/h 95 % 0 mm
05:40 21.8 °C 21 °C 1010 hPa SE 1.6 km/h 8 km/h 95 % 0 mm
05:45 21.8 °C 21 °C 1010 hPa ESE 4.8 km/h 8 km/h 95 % 0 mm
05:50 21.7 °C 20.9 °C 1010 hPa ESE 4.8 km/h 6.4 km/h 95 % 0 mm
05:55 21.7 °C 20.9 °C 1010 hPa SSE 3.2 km/h 6.4 km/h 95 % 0 mm
06:00 21.7 °C 20.9 °C 1010 hPa SSE 1.6 km/h 8 km/h 95 % 0 mm
06:05 21.7 °C 20.9 °C 1010 hPa SSE 4.8 km/h 8 km/h 95 % 0 mm
06:10 21.7 °C 20.9 °C 1010 hPa South 3.2 km/h 8 km/h 95 % 0 mm
06:15 21.7 °C 20.9 °C 1010 hPa SSW 3.2 km/h 8 km/h 95 % 0 mm
06:21 21.6 °C 20.8 °C 1010 hPa South 1.6 km/h 8 km/h 95 % 0 mm
06:26 21.6 °C 20.8 °C 1010 hPa SSW 3.2 km/h 8 km/h 95 % 0 mm
06:31 21.5 °C 20.7 °C 1010.4 hPa South 4.8 km/h 8 km/h 95 % 0 mm
06:32 21.5 °C 20.7 °C 1010.4 hPa South 3.2 km/h 8 km/h 95 % 0 mm
06:37 21.4 °C 20.6 °C 1010.4 hPa SSE 1.6 km/h 8 km/h 95 % 0 mm
06:42 21.6 °C 20.9 °C 1010.4 hPa SSE 6.4 km/h 6.4 km/h 96 % 0 mm
06:47 21.6 °C 20.9 °C 1010.4 hPa SSE 4.8 km/h 6.4 km/h 96 % 0 mm
06:52 21.6 °C 20.9 °C 1010.4 hPa South 6.4 km/h 8 km/h 96 % 0 mm
06:57 21.6 °C 20.9 °C 1010.4 hPa SSE 4.8 km/h 9.7 km/h 96 % 0 mm
07:02 21.6 °C 20.9 °C 1010.4 hPa SSE 6.4 km/h 9.7 km/h 96 % 0 mm
07:07 21.7 °C 21 °C 1010.4 hPa SSE 3.2 km/h 9.7 km/h 96 % 0 mm
07:12 21.7 °C 21 °C 1010.4 hPa SE 6.4 km/h 8 km/h 96 % 0 mm
07:17 21.7 °C 21 °C 1010.4 hPa SE 3.2 km/h 8 km/h 96 % 0 mm
07:22 21.7 °C 21 °C 1010.4 hPa SSE 3.2 km/h 8 km/h 96 % 0 mm
07:27 21.7 °C 21 °C 1010.4 hPa South 3.2 km/h 9.7 km/h 96 % 0 mm
07:32 21.7 °C 21 °C 1010.7 hPa SSE 1.6 km/h 9.7 km/h 96 % 0 mm
07:37 21.7 °C 21 °C 1010.7 hPa SW 6.4 km/h 9.7 km/h 96 % 0 mm
07:42 21.7 °C 21 °C 1010.7 hPa SSW 4.8 km/h 8 km/h 96 % 0 mm
07:47 21.8 °C 21.1 °C 1011.1 hPa South 3.2 km/h 6.4 km/h 96 % 0 mm
07:52 21.8 °C 21.1 °C 1011.1 hPa SE 8 km/h 12.9 km/h 96 % 0 mm
07:57 21.9 °C 21.2 °C 1011.1 hPa South 3.2 km/h 12.9 km/h 96 % 0 mm
08:02 22 °C 21.3 °C 1011.1 hPa SSE 3.2 km/h 12.9 km/h 96 % 0 mm
08:07 22.1 °C 21.4 °C 1011.1 hPa South 4.8 km/h 11.3 km/h 96 % 0 mm
08:12 22.2 °C 21.4 °C 1011.1 hPa SSE 1.6 km/h 11.3 km/h 95 % 0 mm
08:17 22.3 °C 21.5 °C 1011.1 hPa ESE 11.3 km/h 11.3 km/h 95 % 0 mm
08:22 22.3 °C 21.5 °C 1011.1 hPa South 4.8 km/h 14.5 km/h 95 % 0 mm
08:27 22.4 °C 21.4 °C 1011.1 hPa SSE 4.8 km/h 17.7 km/h 94 % 0 mm
08:32 22.5 °C 21.5 °C 1011.4 hPa SSE 6.4 km/h 17.7 km/h 94 % 0 mm
08:37 22.6 °C 21.6 °C 1011.4 hPa SSW 11.3 km/h 17.7 km/h 94 % 0 mm
08:42 22.7 °C 21.7 °C 1011.4 hPa South 9.7 km/h 17.7 km/h 94 % 0 mm
08:47 22.9 °C 21.7 °C 1011.4 hPa South 6.4 km/h 17.7 km/h 93 % 0 mm
08:52 23.1 °C 21.7 °C 1011.4 hPa SSE 9.7 km/h 17.7 km/h 92 % 0 mm
08:57 23.2 °C 21.8 °C 1011.4 hPa SSE 11.3 km/h 17.7 km/h 92 % 0 mm
09:02 23.3 °C 21.7 °C 1011.7 hPa South 4.8 km/h 17.7 km/h 91 % 0 mm
09:07 23.2 °C 21.6 °C 1011.7 hPa SSW 3.2 km/h 17.7 km/h 91 % 0 mm
09:12 23.2 °C 21.5 °C 1011.7 hPa SSE 3.2 km/h 14.5 km/h 90 % 0 mm
09:17 23.1 °C 21.4 °C 1011.7 hPa SSW 9.7 km/h 17.7 km/h 90 % 0 mm
09:22 23.1 °C 21.4 °C 1011.7 hPa SE 3.2 km/h 17.7 km/h 90 % 0 mm
09:27 23.2 °C 21.6 °C 1011.7 hPa SE 3.2 km/h 17.7 km/h 91 % 0 mm
09:32 23.3 °C 21.4 °C 1011.7 hPa South 16.1 km/h 19.3 km/h 89 % 0 mm
09:37 23.6 °C 21.9 °C 1011.7 hPa South 3.2 km/h 20.9 km/h 90 % 0 mm
09:42 23.9 °C 22 °C 1011.7 hPa SW 6.4 km/h 20.9 km/h 89 % 0 mm
09:47 24.3 °C 22 °C 1011.7 hPa SSE 6.4 km/h 20.9 km/h 87 % 0 mm
09:52 24.7 °C 22.2 °C 1011.7 hPa SSW 8 km/h 16.1 km/h 86 % 0 mm
09:57 24.7 °C 21.8 °C 1012.1 hPa South 6.4 km/h 17.7 km/h 84 % 0 mm
10:02 24.5 °C 21.6 °C 1012.1 hPa SSW 6.4 km/h 19.3 km/h 84 % 0 mm
10:07 24.6 °C 21.7 °C 1012.1 hPa South 1.6 km/h 19.3 km/h 84 % 0 mm
10:12 24.7 °C 21.6 °C 1012.1 hPa SSW 6.4 km/h 19.3 km/h 83 % 0 mm
10:17 24.9 °C 21.8 °C 1012.1 hPa SSE 3.2 km/h 17.7 km/h 83 % 0 mm
10:22 25.2 °C 21.9 °C 1012.1 hPa SSE 11.3 km/h 11.3 km/h 82 % 0 mm
10:27 25.4 °C 22.1 °C 1012.1 hPa South 3.2 km/h 12.9 km/h 82 % 0 mm
10:32 25.6 °C 21.5 °C 1012.1 hPa SSW 12.9 km/h 14.5 km/h 78 % 0 mm
10:37 25.3 °C 21.4 °C 1012.1 hPa SSW 8 km/h 20.9 km/h 79 % 0 mm
10:42 25.2 °C 21.3 °C 1012.1 hPa South 8 km/h 20.9 km/h 79 % 0 mm
10:47 25.3 °C 21.6 °C 1012.1 hPa SE 4.8 km/h 20.9 km/h 80 % 0 mm
10:53 25.5 °C 21.6 °C 1012.1 hPa SE 8 km/h 19.3 km/h 79 % 0 mm
10:54 25.7 °C 21.8 °C 1012.1 hPa South 6.4 km/h 19.3 km/h 79 % 0 mm
10:59 25.9 °C 21.6 °C 1012.1 hPa South 4.8 km/h 17.7 km/h 77 % 0 mm
11:00 26 °C 21.7 °C 1012.1 hPa SSW 4.8 km/h 17.7 km/h 77 % 0 mm
11:05 26.5 °C 21.7 °C 1012.1 hPa SSW 8 km/h 16.1 km/h 75 % 0 mm
11:10 26.8 °C 21.6 °C 1012.1 hPa SSE 8 km/h 17.7 km/h 73 % 0 mm
11:15 26.8 °C 21.1 °C 1012.1 hPa ESE 8 km/h 24.1 km/h 71 % 0 mm
11:20 26.9 °C 21.2 °C 1012.4 hPa SSW 12.9 km/h 24.1 km/h 71 % 0 mm
11:25 27.1 °C 21.8 °C 1012.4 hPa SW 11.3 km/h 24.1 km/h 73 % 0 mm
11:30 27.4 °C 21.4 °C 1012.4 hPa SSE 11.3 km/h 22.5 km/h 70 % 0 mm
11:35 27.4 °C 21.2 °C 1012.4 hPa SSE 4.8 km/h 19.3 km/h 69 % 0 mm
11:40 27.2 °C 21 °C 1012.4 hPa SSW 4.8 km/h 17.7 km/h 69 % 0 mm
11:45 27 °C 21.1 °C 1012.4 hPa SW 8 km/h 17.7 km/h 70 % 0 mm
11:51 27.2 °C 21.5 °C 1012.1 hPa South 4.8 km/h 17.7 km/h 71 % 0 mm
11:56 27.3 °C 21.1 °C 1012.4 hPa South 11.3 km/h 19.3 km/h 69 % 0 mm
12:01 27.4 °C 21.7 °C 1012.4 hPa WSW 4.8 km/h 19.3 km/h 71 % 0 mm
12:06 27.6 °C 21.4 °C 1012.4 hPa SW 3.2 km/h 19.3 km/h 69 % 0 mm
12:11 27.6 °C 21.2 °C 1012.1 hPa South 12.9 km/h 19.3 km/h 68 % 0 mm
12:16 27.9 °C 21.2 °C 1012.1 hPa ESE 8 km/h 17.7 km/h 67 % 0 mm
12:21 28.2 °C 21.2 °C 1012.1 hPa NW 4.8 km/h 17.7 km/h 66 % 0 mm
12:26 28.1 °C 21.4 °C 1012.1 hPa South 6.4 km/h 19.3 km/h 67 % 0 mm
12:31 28.2 °C 21 °C 1012.1 hPa SW 8 km/h 19.3 km/h 65 % 0 mm
12:36 28.2 °C 21.2 °C 1012.1 hPa ESE 4.8 km/h 19.3 km/h 66 % 0 mm
12:41 28.2 °C 21.5 °C 1012.1 hPa SSE 9.7 km/h 14.5 km/h 67 % 0 mm
12:46 28.3 °C 21.3 °C 1011.7 hPa South 6.4 km/h 14.5 km/h 66 % 0 mm
12:51 28.2 °C 21 °C 1011.7 hPa SE 1.6 km/h 14.5 km/h 65 % 0 mm
12:56 27.9 °C 21 °C 1011.7 hPa SE 12.9 km/h 14.5 km/h 66 % 0 mm
13:01 27.9 °C 20.7 °C 1011.7 hPa South 11.3 km/h 16.1 km/h 65 % 0 mm
13:06 27.7 °C 21 °C 1011.7 hPa Calm   16.1 km/h 67 % 0 mm
13:11 27.7 °C 20.8 °C 1011.7 hPa South 6.4 km/h 16.1 km/h 66 % 0 mm
13:16 27.7 °C 21 °C 1011.7 hPa SW 8 km/h 14.5 km/h 67 % 0 mm
13:21 27.7 °C 21 °C 1011.7 hPa South 4.8 km/h 14.5 km/h 67 % 0 mm
13:26 28.1 °C 21.4 °C 1011.4 hPa South 6.4 km/h 14.5 km/h 67 % 0 mm
13:31 28.5 °C 21.5 °C 1011.4 hPa SSW 3.2 km/h 12.9 km/h 66 % 0 mm
13:36 28.6 °C 21.4 °C 1011.4 hPa SSW 4.8 km/h 11.3 km/h 65 % 0 mm
13:41 28.7 °C 21.7 °C 1011.4 hPa Calm   11.3 km/h 66 % 0 mm
13:46 28.6 °C 21.4 °C 1011.1 hPa SSE 8 km/h 11.3 km/h 65 % 0 mm
13:51 28.6 °C 21.4 °C 1011.1 hPa South 6.4 km/h 16.1 km/h 65 % 0 mm
13:56 28.7 °C 21.5 °C 1011.1 hPa SE 4.8 km/h 16.1 km/h 65 % 0 mm
14:01 28.6 °C 20.9 °C 1011.1 hPa SW 4.8 km/h 16.1 km/h 63 % 0 mm
14:06 28.8 °C 21.1 °C 1011.1 hPa ESE 8 km/h 16.1 km/h 63 % 0 mm
14:11 28.8 °C 21.1 °C 1010.7 hPa South 6.4 km/h 14.5 km/h 63 % 0 mm
14:16 28.9 °C 21.4 °C 1010.7 hPa South 6.4 km/h 14.5 km/h 64 % 0 mm
14:21 28.8 °C 21.1 °C 1010.7 hPa South 4.8 km/h 14.5 km/h 63 % 0 mm
14:26 28.9 °C 21.4 °C 1010.7 hPa SW 4.8 km/h 14.5 km/h 64 % 0 mm
14:30 29.1 °C 21.3 °C 1010.7 hPa SSW 4.8 km/h 14.5 km/h 63 % 0 mm
14:31 29.1 °C 21.6 °C 1010.7 hPa SSW 3.2 km/h 9.7 km/h 64 % 0 mm
14:32 29.2 °C 21.4 °C 1010.7 hPa SSE 6.4 km/h 9.7 km/h 63 % 0 mm
14:35 29.2 °C 21.7 °C 1010.4 hPa ESE 8 km/h 9.7 km/h 64 % 0 mm
14:36 29.2 °C 21.2 °C 1010.7 hPa SW 4.8 km/h 9.7 km/h 62 % 0 mm
14:38 29.3 °C 21.8 °C 1010.7 hPa SE 8 km/h 9.7 km/h 64 % 0 mm
14:43 29.6 °C 21.3 °C 1010.4 hPa SSW 6.4 km/h 16.1 km/h 61 % 0 mm
14:47 29.6 °C 21.3 °C 1010.4 hPa SE 6.4 km/h 16.1 km/h 61 % 0 mm
14:51 29.4 °C 21.1 °C 1010.4 hPa SSW 6.4 km/h 16.1 km/h 61 % 0 mm
14:52 29.4 °C 21.1 °C 1010.4 hPa SE 4.8 km/h 16.1 km/h 61 % 0 mm
14:54 29.4 °C 21.4 °C 1010.4 hPa SSW 6.4 km/h 16.1 km/h 62 % 0 mm
14:56 29.3 °C 21 °C 1010.4 hPa South 4.8 km/h 12.9 km/h 61 % 0 mm
14:59 29.3 °C 21.3 °C 1010.4 hPa SSW 1.6 km/h 12.9 km/h 62 % 0 mm
15:04 29.4 °C 21.6 °C 1010.4 hPa Calm   12.9 km/h 63 % 0 mm
15:09 29.7 °C 21.1 °C 1010 hPa SE 4.8 km/h 12.9 km/h 60 % 0 mm
15:14 29.7 °C 21.1 °C 1010 hPa SSE 4.8 km/h 11.3 km/h 60 % 0 mm
15:19 29.6 °C 21.5 °C 1010 hPa SSW 4.8 km/h 11.3 km/h 62 % 0 mm
15:24 29.8 °C 22 °C 1010 hPa SW 3.2 km/h 11.3 km/h 63 % 0 mm
15:29 30.4 °C 21.8 °C 1010 hPa SSW 4.8 km/h 11.3 km/h 60 % 0 mm
15:34 30.4 °C 21.2 °C 1010 hPa SW 9.7 km/h 11.3 km/h 58 % 0 mm
15:39 30.6 °C 21.1 °C 1009.7 hPa ESE 4.8 km/h 9.7 km/h 57 % 0 mm
15:44 30.4 °C 20.9 °C 1009.7 hPa SE 4.8 km/h 11.3 km/h 57 % 0 mm
15:49 30.2 °C 21 °C 1009.7 hPa SSW 4.8 km/h 11.3 km/h 58 % 0 mm
15:54 30.2 °C 21 °C 1009.7 hPa ESE 1.6 km/h 11.3 km/h 58 % 0 mm
15:59 30.1 °C 20.6 °C 1009.7 hPa ESE 6.4 km/h 12.9 km/h 57 % 0 mm
16:04 30 °C 21.9 °C 1009.7 hPa South 4.8 km/h 12.9 km/h 62 % 0 mm
16:09 30.3 °C 21.7 °C 1009.4 hPa WSW 9.7 km/h 12.9 km/h 60 % 0 mm
16:14 30.2 °C 21 °C 1009.4 hPa SSE 3.2 km/h 11.3 km/h 58 % 0 mm
16:19 30.4 °C 21.5 °C 1009.4 hPa SSE 4.8 km/h 17.7 km/h 59 % 0 mm
16:24 30.5 °C 21.3 °C 1009.4 hPa SSE 8 km/h 17.7 km/h 58 % 0 mm
16:29 30.2 °C 21 °C 1009.4 hPa SE 6.4 km/h 17.7 km/h 58 % 0 mm
16:34 30.2 °C 21.3 °C 1009.4 hPa East 6.4 km/h 16.1 km/h 59 % 0 mm
16:39 30.2 °C 21 °C 1009.4 hPa ESE 9.7 km/h 16.1 km/h 58 % 0 mm
16:44 30.2 °C 21 °C 1009 hPa South 6.4 km/h 16.1 km/h 58 % 0 mm
16:49 30.4 °C 21.2 °C 1009 hPa SE 6.4 km/h 16.1 km/h 58 % 0 mm
16:54 30.4 °C 21.2 °C 1009 hPa SE 4.8 km/h 16.1 km/h 58 % 0 mm
16:59 30.3 °C 21.1 °C 1009 hPa SW 12.9 km/h 16.1 km/h 58 % 0 mm
17:04 29.9 °C 21 °C 1009 hPa SSE 6.4 km/h 16.1 km/h 59 % 0 mm
17:09 29.7 °C 20.8 °C 1009 hPa SE 3.2 km/h 14.5 km/h 59 % 0 mm
17:14 29.5 °C 20.6 °C 1008.7 hPa SE 3.2 km/h 14.5 km/h 59 % 0 mm
17:20 29.4 °C 20.8 °C 1008.7 hPa SSE 9.7 km/h 11.3 km/h 60 % 0 mm
17:25 29.6 °C 21.5 °C 1008.7 hPa SE 6.4 km/h 16.1 km/h 62 % 0 mm
17:30 29.6 °C 21.8 °C 1008.7 hPa SSE 12.9 km/h 17.7 km/h 63 % 0 mm
17:35 29.4 °C 21.9 °C 1008.7 hPa SE 6.4 km/h 17.7 km/h 64 % 0 mm
17:40 29.4 °C 21.9 °C 1008.7 hPa SE 6.4 km/h 17.7 km/h 64 % 0 mm
17:45 29.2 °C 21.7 °C 1008.7 hPa SSE 9.7 km/h 20.9 km/h 64 % 0 mm
17:50 28.9 °C 21.4 °C 1008.7 hPa South 16.1 km/h 20.9 km/h 64 % 0 mm
17:55 28.7 °C 21.2 °C 1008.7 hPa SE 20.9 km/h 24.1 km/h 64 % 0 mm
18:00 28.6 °C 21.4 °C 1009 hPa SE 8 km/h 24.1 km/h 65 % 0 mm
18:05 28.4 °C 21.2 °C 1008.7 hPa SSE 4.8 km/h 24.1 km/h 65 % 0 mm
18:10 28.2 °C 21.2 °C 1008.7 hPa South 11.3 km/h 22.5 km/h 66 % 0 mm
18:15 28.2 °C 21 °C 1008.7 hPa SSW 6.4 km/h 19.3 km/h 65 % 0 mm
18:20 28.1 °C 20.9 °C 1008.7 hPa South 8 km/h 19.3 km/h 65 % 0 mm
18:25 28.1 °C 20.9 °C 1008.7 hPa SE 4.8 km/h 19.3 km/h 65 % 0 mm
18:30 28.1 °C 20.6 °C 1008.7 hPa SSE 9.7 km/h 16.1 km/h 64 % 0 mm
18:36 28.1 °C 20.6 °C 1008.7 hPa SSW 9.7 km/h 14.5 km/h 64 % 0 mm
18:41 28 °C 20.6 °C 1008.7 hPa SSE 3.2 km/h 14.5 km/h 64 % 0 mm
18:46 27.8 °C 20.4 °C 1009 hPa SE 4.8 km/h 12.9 km/h 64 % 0 mm
18:51 27.7 °C 20.5 °C 1009 hPa SE 4.8 km/h 11.3 km/h 65 % 0 mm
18:56 27.7 °C 20.5 °C 1009 hPa SSE 6.4 km/h 9.7 km/h 65 % 0 mm
19:01 27.6 °C 20.4 °C 1009 hPa SSW 4.8 km/h 9.7 km/h 65 % 0 mm
19:06 27.6 °C 20.4 °C 1009 hPa SSE 8 km/h 11.3 km/h 65 % 0 mm
19:11 27.6 °C 20.4 °C 1009 hPa South 9.7 km/h 17.7 km/h 65 % 0 mm
19:16 27.4 °C 20.5 °C 1009 hPa South 8 km/h 19.3 km/h 66 % 0 mm
19:21 27.2 °C 20.3 °C 1009 hPa SSE 8 km/h 19.3 km/h 66 % 0 mm
19:26 27.1 °C 20 °C 1009 hPa SE 12.9 km/h 20.9 km/h 65 % 0 mm
19:31 27 °C 19.9 °C 1009 hPa ESE 14.5 km/h 20.9 km/h 65 % 0 mm
19:36 26.8 °C 19.9 °C 1009.4 hPa SE 4.8 km/h 20.9 km/h 66 % 0 mm
19:41 26.7 °C 20.1 °C 1009.4 hPa East 14.5 km/h 17.7 km/h 67 % 0 mm
19:46 26.6 °C 20.2 °C 1009.4 hPa ESE 9.7 km/h 20.9 km/h 68 % 0 mm
19:51 26.4 °C 20.3 °C 1009.4 hPa SE 11.3 km/h 20.9 km/h 69 % 0 mm
19:56 26.2 °C 20.3 °C 1009.4 hPa SSW 8 km/h 20.9 km/h 70 % 0 mm
20:01 26.1 °C 20.4 °C 1009.4 hPa SE 11.3 km/h 19.3 km/h 71 % 0 mm
20:06 25.9 °C 20.5 °C 1009.4 hPa SW 9.7 km/h 22.5 km/h 72 % 0 mm
20:11 25.7 °C 20.3 °C 1009.4 hPa SSE 11.3 km/h 22.5 km/h 72 % 0 mm
20:16 25.6 °C 20.4 °C 1009.7 hPa SSW 9.7 km/h 22.5 km/h 73 % 0 mm
20:21 25.6 °C 20.4 °C 1009.7 hPa SE 4.8 km/h 20.9 km/h 73 % 0 mm
20:26 25.4 °C 20.2 °C 1009.7 hPa South 8 km/h 20.9 km/h 73 % 0 mm
20:31 25.3 °C 20.3 °C 1009.7 hPa South 8 km/h 20.9 km/h 74 % 0 mm
20:36 25.3 °C 20.3 °C 1009.7 hPa SE 9.7 km/h 17.7 km/h 74 % 0 mm
20:41 25.3 °C 20.3 °C 1009.7 hPa SSE 6.4 km/h 17.7 km/h 74 % 0 mm
20:46 25.2 °C 20.5 °C 1009.7 hPa SSE 11.3 km/h 17.7 km/h 75 % 0 mm
20:51 25.1 °C 20.4 °C 1010 hPa South 4.8 km/h 17.7 km/h 75 % 0 mm
20:56 25 °C 20.5 °C 1010 hPa South 8 km/h 17.7 km/h 76 % 0 mm
21:01 24.9 °C 20.4 °C 1010 hPa South 9.7 km/h 19.3 km/h 76 % 0 mm
21:06 24.7 °C 20.4 °C 1010 hPa SE 9.7 km/h 19.3 km/h 77 % 0 mm
21:11 24.7 °C 20.4 °C 1010 hPa SE 6.4 km/h 19.3 km/h 77 % 0 mm
21:16 24.6 °C 20.5 °C 1010 hPa South 6.4 km/h 19.3 km/h 78 % 0 mm
21:21 24.4 °C 20.3 °C 1010.4 hPa SSW 9.7 km/h 17.7 km/h 78 % 0 mm
21:26 24.3 °C 20.2 °C 1010.4 hPa SE 6.4 km/h 17.7 km/h 78 % 0 mm
21:31 24.3 °C 20.4 °C 1010.4 hPa ESE 11.3 km/h 17.7 km/h 79 % 0 mm
21:36 24.2 °C 20.3 °C 1010.4 hPa SE 6.4 km/h 17.7 km/h 79 % 0 mm
21:41 24.1 °C 20.4 °C 1010.4 hPa ESE 4.8 km/h 16.1 km/h 80 % 0 mm
21:46 24.1 °C 20.6 °C 1010.7 hPa East 11.3 km/h 14.5 km/h 81 % 0 mm
21:51 23.9 °C 20.6 °C 1010.7 hPa SSE 6.4 km/h 14.5 km/h 82 % 0 mm
21:56 23.9 °C 20.8 °C 1010.7 hPa SE 4.8 km/h 16.1 km/h 83 % 0 mm
22:01 23.8 °C 20.7 °C 1010.7 hPa SSE 9.7 km/h 16.1 km/h 83 % 0 mm
22:06 23.7 °C 20.8 °C 1010.7 hPa ESE 3.2 km/h 16.1 km/h 84 % 0 mm
22:11 23.6 °C 20.9 °C 1011.1 hPa SSE 3.2 km/h 12.9 km/h 85 % 0 mm
22:16 23.5 °C 20.8 °C 1011.1 hPa ESE 4.8 km/h 11.3 km/h 85 % 0 mm
22:21 23.4 °C 20.7 °C 1010.7 hPa ESE 8 km/h 12.9 km/h 85 % 0 mm
22:26 23.4 °C 20.9 °C 1011.1 hPa SE 9.7 km/h 12.9 km/h 86 % 0 mm
22:31 23.3 °C 20.8 °C 1011.1 hPa SE 6.4 km/h 12.9 km/h 86 % 0 mm
22:36 23.2 °C 20.7 °C 1011.1 hPa South 3.2 km/h 11.3 km/h 86 % 0 mm
22:41 23.1 °C 20.8 °C 1011.1 hPa SE 4.8 km/h 11.3 km/h 87 % 0 mm
22:46 23 °C 20.7 °C 1011.1 hPa SSE 4.8 km/h 11.3 km/h 87 % 0 mm
22:51 22.9 °C 20.8 °C 1011.1 hPa SSE 6.4 km/h 9.7 km/h 88 % 0 mm
22:57 22.9 °C 20.8 °C 1011.1 hPa ESE 3.2 km/h 9.7 km/h 88 % 0 mm
23:02 22.9 °C 20.8 °C 1011.1 hPa SSE 3.2 km/h 9.7 km/h 88 % 0 mm
23:07 22.8 °C 20.9 °C 1011.1 hPa ESE 3.2 km/h 8 km/h 89 % 0 mm
23:12 22.7 °C 20.8 °C 1011.1 hPa SE 1.6 km/h 6.4 km/h 89 % 0 mm
23:17 22.6 °C 20.9 °C 1011.1 hPa Calm   6.4 km/h 90 % 0 mm
23:22 22.6 °C 20.9 °C 1011.1 hPa SE 3.2 km/h 8 km/h 90 % 0 mm
23:27 22.6 °C 21.1 °C 1011.1 hPa ESE 1.6 km/h 8 km/h 91 % 0 mm
23:32 22.6 °C 21.1 °C 1011.1 hPa SSE 3.2 km/h 9.7 km/h 91 % 0 mm
23:37 22.4 °C 20.9 °C 1011.1 hPa SE 1.6 km/h 9.7 km/h 91 % 0 mm
23:42 22.4 °C 20.9 °C 1011.1 hPa SSE 1.6 km/h 9.7 km/h 91 % 0 mm
23:47 22.4 °C 21 °C 1011.1 hPa SSE 3.2 km/h 6.4 km/h 92 % 0 mm
23:52 22.4 °C 21 °C 1011.1 hPa SSE 3.2 km/h 8 km/h 92 % 0 mm
23:57 22.3 °C 20.9 °C 1011.1 hPa SSE 3.2 km/h 8 km/h 92 % 0 mm
Spring, Texas: Villages of Bridgestone
Compliments of Weather Underground - 3 mb

Script developed by  Jim McMurry - jmcmurry@mwt.net Adapted for the template by  Wim van der Kuil - Leuven-Template.eu

You find our weather info also at:

UK Metoffice

WeatherCloud

Weather Underground

Mid-South Weather Network

AWEKAS

Citizen Weather Observer Program (CWOP)

HAMweather, WeatherForYou, PWS Weather

Equipment we use:

Weather-station
Davis Vantage Vue

Weather-program
Meteohub

Weather-server
Debian 7.9 x86 (Guest)

Provider
DreamHost

Davis Vantage Vue

Meteohub

Debian 7.9 x86 (Guest)

DreamHost